Location: Dalovy
(49.7964°N, 14.8556°E)
Time: 07:06:25
(UTC+00:00)

Daily predictions for brighter satellites

Satellite Brightness Start Highest point End
(mag) Time Altitude Azimuth Time Altitude Azimuth Time Altitude Azimuth
NOSS 3-2 (A) 4.3 17:26:57 10° NW 17:33:59 53° NE 17:41:59 10° ESE
Cosmos 1725 Rocket 4.4 17:29:43 10° SSW 17:35:59 75° W 17:42:16 10° N
NOSS 2-2 (C) 4.3 17:33:32 10° S 17:36:17 22° ESE 17:39:14 10° ENE
CZ-2C R/B 3.2 17:34:07 10° SSE 17:39:22 74° ENE 17:44:58 10° N
Ariane Rocket 3.9 17:35:01 10° ESE 17:39:24 31° ENE 17:43:49 10° N
Cosmos 2263 Rocket 2.2 17:34:19 10° SSW 17:39:48 64° ESE 17:45:21 10° NNE
CREW DRAGON DEMO-1 DEB 3.2 17:39:55 10° W 17:42:55 58° N 17:45:56 10° ENE
SJ-6B 4.1 17:41:19 10° ESE 17:44:09 21° ENE 17:47:01 10° NNE
USA 186 3.1 17:42:17 10° ESE 17:44:50 23° ENE 17:47:28 10° NNE
Meteor 2-9 Rocket 4.3 17:39:32 10° S 17:45:21 69° E 17:51:06 10° NNE
Cosmos 2084 Rocket 4.4 17:41:04 10° NW 17:45:23 52° SW 17:49:46 10° SSE
Cosmos 1844 Rocket 3.9 17:43:33 10° SE 17:47:11 18° E 17:50:49 10° ENE
FREGAT/IRIS 4.1 17:49:42 12° E 17:50:55 15° ENE 17:52:32 10° NNE
Cosmos 1975 Rocket 3.0 17:46:46 10° N 17:51:08 81° E 17:55:27 10° SSE
HJ-1C 3.2 17:49:06 10° SSE 17:52:23 75° ENE 17:55:42 10° N
Cosmos 2227 4.2 17:47:14 10° SSW 17:52:59 84° ESE 17:58:44 10° NNE
COSMO-SKYMED 1 3.9 17:50:48 10° N 17:54:58 46° WNW 17:59:06 10° SW
Cosmos 1943 3.6 17:49:21 10° NNW 17:54:58 66° WSW 18:00:34 10° SSE
Cosmos 1898 Rocket 3.5 17:50:35 10° SSW 17:55:46 88° WNW 18:01:00 10° NNE
ATLAS CENTAUR R/B 3.8 17:54:07 10° WNW 17:56:51 18° NNW 17:59:31 10° NNE
USA 234 4.4 17:53:02 10° ENE 17:57:39 20° SE 18:02:15 10° S
USA 102 3.8 17:55:30 10° SE 18:00:09 21° ESE 18:00:29 20° ESE
Cosmos 1867 3.6 17:56:38 10° NW 18:02:09 86° SW 18:07:36 10° SE
Cosmos 1833 Rocket 4.5 18:02:26 10° N 18:06:04 17° NNE 18:09:41 10° ENE
Resurs 01 Rocket 3.3 18:05:19 14° E 18:07:20 18° ENE 18:10:19 10° NNE
Cosmos 858 Rocket 4.5 18:02:45 10° SSW 18:07:58 87° ESE 18:13:13 10° NNE
Lacrosse 5 rocket 2.6 18:04:35 10° W 18:08:40 41° NNW 18:12:57 10° NE
NOSS 3-2 (C) 4.3 18:01:43 10° NW 18:08:47 55° NE 18:15:35 15° ESE
Cosmos 372 Rocket 4.2 18:05:18 10° S 18:10:19 48° ESE 18:15:20 10° NNE
Sich 1 Rocket 3.5 18:07:30 10° S 18:11:59 73° E 18:16:32 10° NNE
MOS 1 Rocket 3.0 18:09:11 10° NNE 18:13:41 68° E 18:17:59 10° S
Meteor 1-12 Rocket 4.4 18:09:56 10° S 18:15:41 57° E 18:21:23 10° NNE
CSL-04 Rocket 4.3 18:11:26 10° S 18:16:48 61° WSW 18:22:16 10° NNW
OBJECT-B 2.0 18:19:21 22° E 18:20:12 25° ENE 18:22:56 10° N
SJ 16-02 3.5 18:16:29 10° WSW 18:20:19 29° WNW 18:24:11 10° N
Cosmos 1626 3.9 18:19:06 10° NNE 18:21:22 15° ENE 18:21:30 15° ENE
Cosmos 1513 Rocket 4.4 18:17:00 10° S 18:23:14 71° E 18:29:23 10° NNE
Cosmos 1937 Rocket 3.8 18:18:41 10° SSW 18:23:55 72° WNW 18:29:09 10° NNE
ARIANE 5 R/B 4.3 18:23:29 15° ENE 18:24:24 16° ENE 18:26:59 10° NNE
Cosmos 1125 Rocket 4.2 18:23:52 10° SSE 18:28:28 31° E 18:33:05 10° NE
Okean 2 Rocket 3.0 18:26:03 10° S 18:30:32 73° E 18:35:02 10° NNE
Abrixas rocket 1.8 18:28:05 10° W 18:30:55 66° S 18:31:43 40° ESE
Cosmos 1464 Rocket 3.9 18:26:04 10° S 18:32:11 78° E 18:38:23 10° NNE
Okean 1 Rocket 4.0 18:31:11 24° ESE 18:32:32 28° E 18:36:22 10° NNE
SL-08 RB Rocket 3.7 18:27:59 10° SSE 18:32:35 88° WSW 18:37:11 10° NNW
NOSS 2-2 (E) 3.1 18:29:33 10° SW 18:33:04 89° E 18:37:11 10° NE
Cosmos 1092 Rocket 4.2 18:30:46 10° N 18:36:43 48° ENE 18:40:57 19° SE
ATLAS 2AS CENTAUR R/B 3.9 18:33:05 10° SSE 18:38:57 23° ESE 18:44:48 10° ENE
Cosmos 1300 Rocket 3.5 18:34:45 10° S 18:39:09 85° E 18:43:37 10° N
Meteor 2-5 Rocket 4.1 18:34:38 10° N 18:40:00 43° ENE 18:42:58 24° SE
Cosmos 468 4.5 18:36:18 10° NNW 18:41:41 85° ENE 18:45:44 18° SSE
NOSS 2-2 (D) 3.0 18:38:14 10° SW 18:41:45 86° SE 18:45:47 10° NE
Cosmos 2026 Rocket 4.5 18:36:56 10° N 18:42:58 43° ENE 18:46:19 24° SE
Resurs 1-3 3.9 18:41:32 28° SE 18:43:32 49° ENE 18:47:47 10° N
USA 102 4.3 18:38:58 10° SSE 18:44:37 29° SSW 18:45:14 27° SW
CENTAUR R/B 3.2 18:38:19 10° NW 18:46:13 73° NE 18:51:58 24° SE
BREEZE-M R/B 4.0 18:37:26 10° WSW 18:47:37 53° SSE 18:48:53 35° ESE
Cosmos 2082 Rocket 3.9 18:44:13 10° N 18:48:11 19° NE 18:50:26 15° ENE
Cosmos 1805 3.7 18:49:00 37° E 18:49:02 37° E 18:52:41 10° NNE
H-2A R/B 3.4 18:45:14 10° SSW 18:49:50 37° W 18:54:33 10° NNW
Cosmos 1674 2.6 18:46:54 10° N 18:50:45 67° ENE 18:52:10 36° SSE
ATLAS 3B R/B 3.5 18:46:50 10° NW 18:53:10 40° NNE 18:56:56 23° E
Cosmos 1048 Rocket 4.1 18:48:59 10° NNW 18:54:19 81° WSW 18:58:02 20° SSE
Cosmos 1536 Rocket 3.7 18:50:47 10° NNW 18:55:13 75° W 18:58:59 14° S
Exosat Rocket 3.8 18:49:58 10° S 18:55:14 45° ESE 18:59:59 10° NE
ISS -3.6 18:52:55 10° SW 18:56:09 55° SSE 18:56:09 55° SSE
USA 238 DEB 3.9 18:50:24 10° NW 18:57:36 80° SW 19:02:30 24° SSE
USA 238 3.9 18:50:30 10° NW 18:57:42 80° SW 19:02:35 24° SSE
COSMOS 2406 4.0 18:54:03 10° NNW 18:59:18 37° NE 19:01:06 30° E
Cosmos 1733 4.5 19:01:22 26° NE 19:01:22 26° NE 19:03:32 10° NNE
CZ-2C R/B 4.1 18:56:41 10° NNE 19:00:45 39° E 19:00:45 39° E
Meteor 1-24 Rocket 3.9 18:57:47 10° N 19:03:08 50° ENE 19:04:56 36° ESE
ARGOS 4.4 18:58:20 10° SSW 19:03:21 40° W 19:08:24 10° NNW
CZ-2C R/B 2.7 18:59:17 10° NNE 19:04:50 89° WNW 19:10:27 10° SSW
Cosmos 1025 Rocket 4.1 19:00:58 10° NNW 19:05:08 45° W 19:09:19 10° SSW
Cosmos 1269 Rocket 4.2 19:00:51 10° NNW 19:06:05 53° ENE 19:07:34 40° ESE
SL-14 R/B 3.9 19:04:30 10° N 19:07:48 39° NE 19:07:48 39° NE
Spot 2 Rocket 4.2 19:10:54 34° ENE 19:11:23 34° ENE 19:15:54 10° N
Cosmos 2151 Rocket 4.1 19:07:37 10° SSW 19:12:01 62° WNW 19:16:30 10° N
KORONAS-FOTON 4.0 19:08:23 10° NNW 19:12:20 73° W 19:13:37 40° S
USA 186 4.0 19:13:02 11° SSW 19:15:28 24° W 19:18:10 10° NW
Ariane Rocket 4.0 19:13:23 10° S 19:18:12 44° W 19:23:05 10° NNW
SJ-6B 4.0 19:16:15 18° SSW 19:18:36 37° W 19:22:08 10° NNW
CREW DRAGON DEMO-1 DEB 3.7 19:15:41 10° WNW 19:18:00 48° WNW 19:18:00 48° WNW
MetOp-B 4.2 19:20:19 47° ESE 19:21:24 56° ENE 19:26:39 10° N
Cosmos 1844 3.6 19:15:56 10° SSW 19:21:36 72° ESE 19:27:15 10° NNE
Cosmos 1766 3.5 19:23:36 57° NE 19:23:36 57° NE 19:26:53 10° NNE
Terra 3.7 19:23:42 17° NE 19:23:42 17° NE 19:26:15 10° NNE
Cosmos 494 Rocket 4.2 19:18:46 10° NNW 19:24:01 71° WSW 19:26:06 37° S
Cosmos 2263 Rocket 4.2 19:19:22 10° WSW 19:24:10 29° NW 19:29:01 10° NNE
NOSS 3-2 (A) 4.5 19:17:52 10° NW 19:25:11 58° WSW 19:30:19 24° SSE
NOSS 2-2 (C) 4.4 19:23:05 10° WSW 19:26:31 42° NW 19:30:31 10° NE
Cosmos 1844 Rocket 2.6 19:24:46 10° SSW 19:30:21 83° WNW 19:35:59 10° NNE
Lacrosse 4 Rocket 3.1 19:27:30 10° NNW 19:30:19 21° NNE 19:30:19 21° NNE
Okean 1-7 Rocket 4.3 19:27:12 10° N 19:30:52 40° NE 19:30:52 40° NE
SPOT 3 Rocket 3.8 19:32:57 35° S 19:35:03 66° WSW 19:40:12 10° NNW
Cosmos 2251 Rocket 4.5 19:34:32 10° N 19:39:25 34° NE 19:39:25 34° NE
USA 234 3.1 19:37:13 22° ENE 19:41:33 64° SE 19:48:02 10° SW
IGS 5A 4.1 19:44:06 48° NNE 19:44:06 48° NNE 19:47:16 10° N
Resurs 01 Rocket 1.8 19:42:54 62° SW 19:43:21 68° WSW 19:47:49 10° NNW
Cosmos 2266 Rocket 4.5 19:39:30 10° N 19:45:00 39° ENE 19:45:00 39° ENE
Lacrosse 5 rocket 2.9 19:44:40 10° WNW 19:48:41 32° N 19:49:28 30° NNE
SPOT 5 3.9 19:49:28 37° NE 19:49:28 37° NE 19:53:45 10° N
Cosmos 1833 Rocket 2.7 19:45:36 10° NNW 19:51:13 60° ENE 19:51:25 60° ENE
OBJECT-B 3.1 19:52:33 22° W 19:52:33 22° W 19:55:09 10° NW
Cosmos 1655 Rocket 4.0 19:50:16 10° N 19:56:29 61° ENE 19:56:43 60° E
Cosmos 1626 3.4 19:53:20 10° NNW 19:56:03 39° NW 19:56:03 39° NW
NOSS 3-2 (C) 4.5 19:52:41 10° NW 19:59:59 55° WSW 20:03:03 37° S
ARIANE 5 R/B 3.0 20:01:02 59° NW 20:01:02 59° NW 20:04:41 10° NNW
Cosmos 1634 Rocket 4.1 19:59:03 28° SSW 20:02:28 71° W 20:08:42 10° N
BREEZE-M TANK 4.0 20:00:49 10° WSW 20:04:38 32° SW 20:04:38 32° SW
Landsat 7 4.1 20:09:07 66° NW 20:09:07 66° NW 20:13:18 10° NNW
Cosmos 2285 Rocket 4.4 20:04:04 10° SW 20:10:18 61° WNW 20:16:37 10° NNE
Cosmos 1125 Rocket 4.5 20:05:16 10° SW 20:10:22 46° WNW 20:15:30 10° NNE
ERS-1 Rocket 3.6 20:17:27 50° NNE 20:17:27 50° NNE 20:21:18 10° N
Meteor 2-19 Rocket 4.4 20:16:14 10° NNW 20:22:23 76° W 20:22:38 75° WSW
ATLAS 2AS CENTAUR R/B 2.9 20:21:01 10° SW 20:28:59 81° SE 20:36:53 10° NE
Cosmos 2098 Rocket 4.0 20:22:37 10° N 20:29:52 85° W 20:30:00 84° SW
Cosmos 2180 Rocket 4.4 20:32:04 83° NW 20:32:04 83° NW 20:38:19 10° N
Cosmos 2082 Rocket 2.6 20:27:39 10° NNW 20:32:16 58° N 20:32:16 58° N
CENTAUR R/B 4.0 20:29:21 10° NW 20:36:46 40° WSW 20:39:09 34° SSW
SPOT 1/Viking Rocket 4.4 20:43:21 46° WNW 20:43:21 46° WNW 20:47:35 10° NNW
COSMOS 2406 4.0 20:38:20 10° NW 20:43:10 45° W 20:43:10 45° W
ATLAS 3B R/B 2.7 20:37:33 10° NW 20:44:10 73° WSW 20:44:10 73° WSW
Cosmos 2279 Rocket 4.5 20:44:35 50° WSW 20:45:33 55° WNW 20:51:44 10° N
Terra 3.5 21:02:36 31° NNW 21:02:36 31° NNW 21:05:07 10° NNW
Cosmos 2278 Rocket 3.7 21:07:57 29° NNE 21:07:57 29° NNE 21:10:41 10° NNE
Lacrosse 4 Rocket 4.1 21:05:40 10° NW 21:06:37 16° NW 21:06:37 16° NW
USA 234 3.6 21:24:43 62° NNW 21:24:43 62° NNW 21:31:02 10° W
Lacrosse 5 rocket 4.2 21:24:05 10° NW 21:25:05 16° NW 21:25:05 16° NW
Cosmos 1943 Rocket 4.5 22:16:55 17° NE 22:16:55 17° NE 22:18:09 10° NNE
ATLAS 2AS CENTAUR R/B 4.0 22:13:15 10° W 22:20:45 42° NNW 22:28:02 10° NE
COSMOS 2455 4.4 22:39:35 31° N 22:39:35 31° N 22:43:00 10° NNE
Cosmos 2369 Rocket 4.3 22:44:15 20° NE 22:44:15 20° NE 22:45:54 10° NNE
NOSS 3-1 (C) 4.5 22:38:39 10° NW 22:44:17 54° N 22:44:17 54° N
Cosmos 2278 Rocket 4.4 22:49:46 19° NW 22:50:06 19° NW 22:54:08 10° N
SL-16 R/B 4.3 22:58:39 23° NE 22:58:39 23° NE 23:03:19 10° N
USA 234 4.3 23:00:55 10° ENE 23:12:14 15° WNW 23:13:19 10° WNW
Cosmos 2227 Rocket 4.1 23:23:32 10° NNW 23:27:48 25° NE 23:27:48 25° NE
CZ-4C R/B 3.8 23:34:17 32° N 23:34:17 32° N 23:39:14 10° NE
